Погода в Рудничном

Россия / Свердловская область     59°41′55″N   60°17′23″E
темп.,
°C
ветер,
м/с
пор.,
м/с
влажн.,
%
обл.,
%
осадки,
мм/ч
давл.,
гПа
погр.,
м
20 января, чт
чт2023:00−8ююз279355 0.0 1014122
02:00−8ююз4119138 0.0 1014243
05:00−8ююз39917 0.0 1015196
08:00−7ююз3109028 0.0 1015270
11:00−7ююз41189100 0.0 1015326
14:00−6ююз4118682 0.0 1015497
17:00−7ююз412865 0.0 1016440
20:00−9ююз412885 0.0 1016345
21 января, пт
пт2123:00−11ююз412909 0.0 1015307
02:00−10ююз41188100 0.0 1015358
05:00−8ююз4989100 0.0 1015370
08:00−7юз3787100 0.1 1014343
11:00−7юз368983 0.1 1016284
14:00−7юз268989 0.0 1016306
17:00−9юз269468 0.0 101896
20:00−10зюз279287 0.0 1019146
22 января, сб
сб2223:00−12зюз249331 0.0 102051
02:00−14зюз239545 0.0 102235
05:00−11з269098 0.0 1022113
08:00−11з2492100 0.0 102475
11:00−9з138998 0.0 102580
14:00−6зюз1383100 0.0 1025147
17:00−8юз119594 0.0 102710
20:00−13з119775 0.0 102810
23 января, вс
вс2323:00−15з219756 0.0 103012
02:00−17зюз22975 0.0 103116
05:00−17з22975 0.0 103226
08:00−14з26935 0.0 103293
11:00−11з28915 0.0 1033138
14:00−6зюз27895 0.0 1034249
17:00−12зюз119645 0.0 10359
20:00−15з219693 0.0 103712
24 января, пн
пн2423:00−12з2294100 0.0 103732
02:00−14з1196100 0.0 103811
05:00−11зюз1196100 0.0 103813
08:00−10юз1195100 0.0 103717
11:00−7зюз1292100 0.0 103752
14:00−4з1391100 0.0 1036122
17:00−9юз1196100 0.0 103510
20:00−9зюз1196100 0.0 103519